KUIPER-00592

导读

KUIPER-00592(NORAD编号69277)是亚马逊“柯伊伯计划”低轨宽带通信星座的组网卫星,于2025年9月25日通过Atlas V 551火箭在卡纳维拉尔角执行KA-03任务时发射升空,属于该项目第五次发射任务。卫星先被送入450公里初始轨道,经电推进爬升至630公里工作轨道,轨道倾角51.9度,在轨运行状态正常。其配备Ka波段相控阵天线与低反光光学设计,可为全球人口密集区域提供低延迟高速网络服务,是亚马逊布局卫星互联网、对标星链的组成节点,助力该星座达成2026年FCC要求的千星运营目标。

基本信息
目录编号:
69277
目录名称:
KUIPER-00592
国际标识:
2026-118L
轨道中心:
EARTH
卫星名称:
KUIPER-00592
卫星全名:
KUIPER-00592
卫星状态:
在轨 (已飞行14 天)
发射日期:
2026-05-29 UTC
国别 :
美国 (US)
星等 :
--
轨道信息
数据来源 国际轨道数据
星历时间: 2026-06-12T13:59:05+0800
15小时前
查看轨道信息
半长轴: 6830.106km
偏心率: 0.0003686
轨道倾角: 51.871°
近地点辐角 120.434°
升交点赤经 77.089°
平近点角 239.701°
近地点: 449.451km
远地点: 454.487km
周期: 93.627分钟
每日圈数: 15.380187
详细信息
使用方式:
暂无
2D轨道图
3D轨道图
轨道高度分析图
轨道倾角分析图
轨道综合分析图
查看轨道综合分析图